Location: Pedholt
(56.0260°N, 10.2097°E)
Time: 05:57:25
(UTC+00:00)

Cosmos 1733 Rocket - Pass Details

Date: 14 July 2020
Orbit: 604 x 627 km, 82.5° (Epoch: 14 August)

Event Time Altitude Azimuth Distance (km) Brightness Sun altitude
Exits shadow 01:29:33 - 172° (S) 2,414 5.6 -8.0°
Reaches altitude 10° 01:30:43 10° 169° (S) 1,952 5.2 -7.9°
Maximum altitude 01:34:52 49° 95° (E) 788 3.8 -7.6°
Drops below altitude 10° 01:39:04 10° 21° (NNE) 1,969 7.3 -7.3°
Sets 01:41:21 0° 16° (NNE) 2,880 8.3 -7.2°
